Location: Boitzum
(52.1496°N, 9.6943°E)
Time: 23:27:19
(UTC+00:00)

Cosmos 1862 Rocket - Pass Details

Date: 13 January 2026
Orbit: 596 x 627 km, 82.5° (Epoch: 9 February)

Event Time Altitude Azimuth Distance (km) Brightness Sun altitude
Rises 06:20:41 0° 344° (NNW) 2,893 6.6 -9.4°
Reaches altitude 10° 06:22:59 10° 339° (NNW) 1,978 5.7 -9.1°
Maximum altitude 06:27:09 46° 266° (W) 820 3.8 -8.5°
Drops below altitude 10° 06:31:16 10° 194° (SSW) 1,945 6.3 -7.9°
Sets 06:33:31 0° 188° (S) 2,839 7.2 -7.6°
